Regional Weather Roundup
Issued by NWS

Home | Current Version | Previous Version | Graphics & Text | Print | Product List | Glossary Off
Versions: 1 2 3 4 5 6 7 8 9 10 11 12 13 14 15 16 17 18 19 20 21 22 23 24 25 26 27 28 29 30 31 32 33 34 35 36 37 38 39 40 41 42 43 44 45 46 47 48 49 50

000
ASUS43 KTOP 151608
RWRKS

WEATHER ROUNDUP FOR KANSAS
NATIONAL WEATHER SERVICE GOODLAND KS
1000 AM CST FRI DEC 15 2017

NOTE:  "FAIR" INDICATES FEW OR NO CLOUDS BELOW 12,000 FEET WITH NO
SIGNIFICANT WEATHER AND/OR OBSTRUCTIONS TO VISIBILITY.

KSZ001>006-013>018-027>032-041>047-151700-
NORTHWEST KANSAS

CITY           SKY/WX    TMP DP  RH WIND       PRES   REMARKS
GOODLAND       SUNNY     35  21  56 SW13      30.04R WCI  26
HAYS           SUNNY     28  21  75 MISG      30.12F
HILL CITY      SUNNY     30  22  72 W9        30.08F
RUSSELL        SUNNY     28  23  81 SW13      30.11F WCI  17
$$

KSZ061>065-074>080-084>089-151700-
SOUTHWEST KANSAS

CITY           SKY/WX    TMP DP  RH WIND       PRES   REMARKS
DODGE CITY     SUNNY     31  22  69 SW10      30.15F WCI  22
ELKHART        SUNNY     34  29  82 W12       30.15S WCI  25
GARDEN CITY    SUNNY     29  22  75 W13       30.13F WCI  19
GREAT BEND     SUNNY     31  22  69 SW15      30.15F WCI  20
LIBERAL        SUNNY     36  26  67 SW17      30.18F WCI  26
PRATT          SUNNY     34  23  65 SW9       30.19S
$$

KSZ066>073-081>083-090>101-151700-
SOUTHEAST KANSAS

CITY           SKY/WX    TMP DP  RH WIND       PRES   REMARKS
CHANUTE        SUNNY     38  30  73 W7        30.21R
COFFEYVILLE    SUNNY     40  31  70 W7        30.24R
HUTCHINSON     SUNNY     32  25  75 SW8       30.18F
MEDICINE LODGE   N/A     33  25  72 CALM      30.21F
NEWTON         SUNNY     33  26  75 SW9       30.19S
PARSONS        SUNNY     40  32  73 NW7       30.23R
WICHITA INTL   SUNNY     37  29  72 SW7       30.20F
WICHITA JABRA  SUNNY     34  28  79 SW7       30.20S
WICHITA MCCONL SUNNY     35  27  72 W6        30.20S
WINFIELD       SUNNY     35  30  82 W3        30.25R
$$

KSZ007>012-019>026-033>040-048>060-102>105-151700-
NORTHEAST KANSAS

CITY           SKY/WX    TMP DP  RH WIND       PRES   REMARKS
CONCORDIA      SUNNY     32  28  85 SW10      30.12R WCI  24
EMPORIA        SUNNY     35  26  69 W8        30.19R
LAWRENCE       SUNNY     38  31  76 CALM      30.17R
MANHATTAN      SUNNY     34  26  72 SW8       30.17S
MARYSVILLE     SUNNY     34  28  80 SW7       30.12S
OLATHE IND     SUNNY     36  30  79 W7        30.17S
OLATHE EXE     SUNNY     36  29  75 W5        30.16R
SALINA         SUNNY     36  28  73 SW10      30.17R WCI  28
TOPEKA BILLARD SUNNY     37  29  72 W13       30.17R WCI  29
TOPEKA FORBES  SUNNY     38  29  70 W9        30.17R
$$



USA.gov is the U.S. government's official web portal to all federal, state and local government web resources and services.